This is the latest recevied weather packets stored in our database for station/object N3TJJ-11. If no packets are shown the sender has not sent any weather packets the latest 10 day(s).
| Time | Temp. | Humidity | Pressure | Rain* | Wind** | Luminosity | Snow |
|---|---|---|---|---|---|---|---|
| 1777934028 | 20° C | 43% | 1008 hPa | 0 mm | - | - | - |
| 1777933425 | 20° C | 43% | 1008 hPa | 0 mm | - | - | - |
| 1777932827 | 20.56° C | 42% | 1008 hPa | 0 mm | - | - | - |
| 1777932706 | 20.56° C | 41% | 1008 hPa | 0 mm | - | - | - |
| 1777932227 | 20.56° C | 41% | 1008 hPa | 0 mm | - | - | - |
| 1777931986 | 20.56° C | 42% | 1008 hPa | 0 mm | - | - | - |
| 1777931634 | 20.56° C | 44% | 1008.1 hPa | 0 mm | - | - | - |
| 1777931265 | 20.56° C | 41% | 1008 hPa | 0 mm | - | - | - |
| 1777931027 | 20.56° C | 41% | 1008 hPa | 0 mm | - | - | - |
| 1777930546 | 20.56° C | 41% | 1008 hPa | 0 mm | - | - | - |
| 1777930427 | 20.56° C | 43% | 1008 hPa | 0 mm | - | - | - |
| 1777929825 | 20.56° C | 41% | 1008.1 hPa | 0 mm | - | - | - |
| 1777929227 | 20.56° C | 41% | 1008 hPa | 0 mm | - | - | - |
| 1777929106 | 20.56° C | 41% | 1008.1 hPa | 0 mm | - | - | - |
| 1777928629 | 21.11° C | 41% | 1008 hPa | 0 mm | - | - | - |
| 1777928386 | 21.11° C | 40% | 1008.1 hPa | 0 mm | - | - | - |
| 1777928029 | 21.11° C | 39% | 1007.9 hPa | 0 mm | - | - | - |
| 1777927666 | 20.56° C | 40% | 1008.2 hPa | 0 mm | - | - | - |
| 1777927427 | 21.11° C | 41% | 1008.1 hPa | 0 mm | - | - | - |
| 1777926946 | 21.11° C | 40% | 1008.1 hPa | 0 mm | - | - | - |
| 1777926827 | 21.11° C | 41% | 1008.1 hPa | 0 mm | - | - | - |
| 1777926226 | 21.11° C | 38% | 1008.2 hPa | 0 mm | - | - | - |
| 1777925627 | 21.11° C | 38% | 1008.3 hPa | 0 mm | - | - | - |
| 1777925506 | 21.11° C | 38% | 1008.4 hPa | 0 mm | - | - | - |
| 1777925027 | 20.56° C | 39% | 1008.5 hPa | 0 mm | - | - | - |
* Rain latest hour (hover to see other rain measurements)
** Current wind speed in m/s (hover to see current wind gust speed)